• In Netherlands
  • List of Countries
  • For 7 days
  • Water Temperature
  • Satellite Maps
  • Weather Map
  • Weather Widgets
  • user-avatar
    Login

    Hourly Weather Pamporovo

    Today, 20 January, Saturday

    Time Temperature Precipitation Wind Pressure Humidity
    00:00 -6°C° 0 mm 2 mps 620 mmHg 61%
    01:00 -6°C° 0 mm 2 mps 620 mmHg 62%
    02:00 -6°C° 0 mm 2 mps 619 mmHg 63%
    03:00 -6°C° 0 mm 2 mps 619 mmHg 65%
    04:00 -6°C° 0 mm 2 mps 619 mmHg 66%
    05:00 -5°C° 0 mm 2 mps 619 mmHg 68%
    06:00 -5°C° 0 mm 2 mps 619 mmHg 69%
    07:00 -5°C° 0 mm 2 mps 619 mmHg 70%
    08:00 -5°C° 0 mm 2 mps 619 mmHg 70%
    09:00 -4°C° 0 mm 2 mps 620 mmHg 66%
    10:00 -2°C° 0 mm 2 mps 620 mmHg 62%
    11:00 +1°C° 0 mm 2 mps 621 mmHg 58%
    12:00 +1°C° 0 mm 2 mps 621 mmHg 59%
    13:00 +2°C° 0 mm 2 mps 621 mmHg 60%
    14:00 +2°C° 0 mm 2 mps 621 mmHg 61%
    15:00 +1°C° 0 mm 2 mps 620 mmHg 67%
    16:00 -1°C° 0 mm 2 mps 619 mmHg 73%
    17:00 -2°C° 0 mm 2 mps 619 mmHg 79%
    18:00 -2°C° 0.1 mm 2 mps 619 mmHg 82%
    19:00 -3°C° 0.1 mm 2 mps 619 mmHg 85%
    20:00 -3°C° 0.1 mm 2 mps 619 mmHg 88%
    21:00 -3°C° 0.5 mm 2 mps 619 mmHg 88%
    22:00 -3°C° 0.5 mm 2 mps 619 mmHg 88%
    23:00 -4°C° 0.5 mm 2 mps 619 mmHg 88%

    Tomorrow, 21 January, Sunday

    Time Temperature Precipitation Wind Pressure Humidity
    00:00 -2°C° 0 mm 1 mps 619 mmHg 88%
    01:00 -3°C° 0 mm 1 mps 619 mmHg 88%
    02:00 -3°C° 0 mm 1 mps 619 mmHg 88%
    03:00 -3°C° 0 mm 1 mps 619 mmHg 88%
    04:00 -3°C° 0 mm 1 mps 619 mmHg 88%
    05:00 -3°C° 0 mm 1 mps 618 mmHg 88%
    06:00 -3°C° 0 mm 1 mps 618 mmHg 88%
    07:00 -3°C° 0 mm 1 mps 618 mmHg 88%
    08:00 -3°C° 0 mm 1 mps 618 mmHg 87%
    09:00 -2°C° 0 mm 1 mps 618 mmHg 86%
    10:00 -1°C° 0 mm 1 mps 618 mmHg 84%
    11:00 -2°C° 0 mm 2 mps 618 mmHg 83%
    12:00 -2°C° 0.1 mm 2 mps 618 mmHg 85%
    13:00 -2°C° 0.1 mm 2 mps 617 mmHg 87%
    14:00 -2°C° 0.1 mm 2 mps 617 mmHg 89%
    15:00 -2°C° 0.5 mm 2 mps 616 mmHg 91%
    16:00 -2°C° 0.5 mm 2 mps 615 mmHg 94%
    17:00 -3°C° 0.5 mm 2 mps 615 mmHg 96%
    18:00 -1°C° 0.9 mm 1 mps 614 mmHg 96%
    19:00 -1°C° 0.9 mm 1 mps 614 mmHg 97%
    20:00 -1°C° 0.9 mm 1 mps 613 mmHg 97%
    21:00 -1°C° 0.5 mm 1 mps 613 mmHg 97%
    22:00 -1°C° 0.5 mm 1 mps 613 mmHg 97%
    23:00 -1°C° 0.5 mm 1 mps 613 mmHg 97%

    Day after tomorrow, 22 January, Monday

    Time Temperature Precipitation Wind Pressure Humidity
    00:00 -1°C° 0.5 mm 1 mps 613 mmHg 96%
    01:00 -3°C° 0.5 mm 2 mps 612 mmHg 95%
    02:00 -3°C° 0.5 mm 2 mps 612 mmHg 95%
    03:00 -5°C° 0.9 mm 3 mps 612 mmHg 91%
    04:00 -5°C° 0.9 mm 3 mps 612 mmHg 88%
    05:00 -7°C° 0.9 mm 4 mps 612 mmHg 84%
    06:00 -7°C° 0.3 mm 4 mps 612 mmHg 82%
    07:00 -8°C° 0.3 mm 4 mps 613 mmHg 80%
    08:00 -8°C° 0.3 mm 5 mps 613 mmHg 78%
    09:00 -8°C° 0.1 mm 5 mps 614 mmHg 76%
    10:00 -7°C° 0.1 mm 5 mps 614 mmHg 74%
    11:00 -7°C° 0.1 mm 5 mps 615 mmHg 71%
    12:00 -6°C° 0 mm 5 mps 616 mmHg 70%
    13:00 -6°C° 0 mm 5 mps 616 mmHg 69%
    14:00 -6°C° 0 mm 5 mps 616 mmHg 68%
    15:00 -5°C° 0 mm 4 mps 617 mmHg 70%
    16:00 -7°C° 0 mm 4 mps 617 mmHg 72%
    17:00 -6°C° 0 mm 3 mps 617 mmHg 74%
    18:00 -7°C° 0 mm 3 mps 618 mmHg 76%
    19:00 -8°C° 0 mm 3 mps 618 mmHg 78%
    20:00 -9°C° 0 mm 3 mps 618 mmHg 81%
    21:00 -9°C° 0 mm 3 mps 619 mmHg 81%
    22:00 -10°C° 0 mm 3 mps 619 mmHg 81%
    23:00 -9°C° 0 mm 2 mps 619 mmHg 82%

    23 January, Tuesday

    Time Temperature Precipitation Wind Pressure Humidity
    00:00 -9°C° 0 mm 2 mps 619 mmHg 81%
    01:00 -9°C° 0 mm 2 mps 620 mmHg 80%
    02:00 -10°C° 0 mm 2 mps 620 mmHg 80%
    03:00 -10°C° 0 mm 2 mps 620 mmHg 79%
    04:00 -10°C° 0 mm 2 mps 620 mmHg 78%
    05:00 -10°C° 0 mm 2 mps 621 mmHg 77%
    06:00 -10°C° 0 mm 2 mps 621 mmHg 77%
    07:00 -10°C° 0 mm 2 mps 622 mmHg 77%
    08:00 -10°C° 0 mm 2 mps 622 mmHg 77%
    09:00 -8°C° 0 mm 2 mps 623 mmHg 71%
    10:00 -6°C° 0 mm 1 mps 624 mmHg 66%
    11:00 -3°C° 0 mm 1 mps 625 mmHg 60%
    12:00 -5°C° 0 mm 2 mps 625 mmHg 60%
    13:00 -4°C° 0 mm 2 mps 625 mmHg 59%
    14:00 -4°C° 0 mm 2 mps 626 mmHg 59%
    15:00 -5°C° 0 mm 2 mps 626 mmHg 64%
    16:00 -6°C° 0 mm 2 mps 626 mmHg 68%
    17:00 -4°C° 0 mm 1 mps 626 mmHg 73%
    18:00 -6°C° 0 mm 1 mps 626 mmHg 76%
    19:00 -7°C° 0 mm 1 mps 626 mmHg 79%
    20:00 -8°C° 0 mm 1 mps 627 mmHg 82%
    21:00 -8°C° 0 mm 1 mps 627 mmHg 82%
    22:00 -9°C° 0 mm 1 mps 627 mmHg 83%
    23:00 -10°C° 0 mm 2 mps 627 mmHg 83%

    24 January, Wednesday

    Time Temperature Precipitation Wind Pressure Humidity
    00:00 -10°C° 0 mm 2 mps 628 mmHg 82%
    01:00 -10°C° 0 mm 2 mps 628 mmHg 81%
    02:00 -12°C° 0 mm 2 mps 628 mmHg 80%
    03:00 -12°C° 0 mm 2 mps 628 mmHg 80%
    04:00 -12°C° 0 mm 2 mps 628 mmHg 79%
    05:00 -12°C° 0 mm 2 mps 628 mmHg 78%
    06:00 -12°C° 0 mm 2 mps 628 mmHg 78%
    07:00 -12°C° 0 mm 2 mps 629 mmHg 78%
    08:00 -12°C° 0 mm 2 mps 629 mmHg 77%
    09:00 -10°C° 0 mm 2 mps 630 mmHg 70%
    10:00 -8°C° 0 mm 2 mps 631 mmHg 63%
    11:00 -7°C° 0 mm 2 mps 632 mmHg 55%
    12:00 -6°C° 0 mm 2 mps 632 mmHg 53%
    13:00 -6°C° 0 mm 2 mps 632 mmHg 50%
    14:00 -5°C° 0 mm 2 mps 631 mmHg 48%
    15:00 -6°C° 0 mm 2 mps 631 mmHg 53%
    16:00 -6°C° 0 mm 1 mps 631 mmHg 57%
    17:00 -7°C° 0 mm 1 mps 630 mmHg 62%
    18:00 -8°C° 0 mm 1 mps 630 mmHg 63%
    19:00 -9°C° 0 mm 1 mps 630 mmHg 64%
    20:00 -10°C° 0 mm 1 mps 630 mmHg 65%
    21:00 -10°C° 0 mm 1 mps 630 mmHg 63%
    22:00 -10°C° 0 mm 1 mps 630 mmHg 62%
    23:00 -10°C° 0 mm 1 mps 630 mmHg 60%

    25 January, Thursday

    Time Temperature Precipitation Wind Pressure Humidity
    00:00 -10°C° 0 mm 1 mps 629 mmHg 59%
    01:00 -10°C° 0 mm 1 mps 629 mmHg 58%
    02:00 -12°C° 0 mm 2 mps 629 mmHg 57%
    03:00 -12°C° 0 mm 2 mps 629 mmHg 55%
    04:00 -12°C° 0 mm 2 mps 628 mmHg 54%
    05:00 -12°C° 0 mm 2 mps 628 mmHg 53%
    06:00 -13°C° 0 mm 2 mps 628 mmHg 52%
    07:00 -13°C° 0 mm 2 mps 628 mmHg 51%
    08:00 -13°C° 0 mm 2 mps 628 mmHg 50%
    09:00 -10°C° 0 mm 2 mps 629 mmHg 44%
    10:00 -8°C° 0 mm 2 mps 629 mmHg 37%
    11:00 -6°C° 0 mm 2 mps 630 mmHg 31%
    12:00 -6°C° 0 mm 3 mps 629 mmHg 31%
    13:00 -6°C° 0 mm 3 mps 629 mmHg 30%
    14:00 -5°C° 0 mm 3 mps 629 mmHg 29%
    15:00 -7°C° 0 mm 3 mps 628 mmHg 36%
    16:00 -8°C° 0 mm 3 mps 628 mmHg 42%
    17:00 -8°C° 0 mm 2 mps 627 mmHg 48%
    18:00 -9°C° 0 mm 2 mps 627 mmHg 51%
    19:00 -10°C° 0 mm 2 mps 627 mmHg 55%
    20:00 -12°C° 0 mm 2 mps 627 mmHg 58%
    21:00 -12°C° 0 mm 2 mps 627 mmHg 59%
    22:00 -12°C° 0 mm 2 mps 627 mmHg 59%
    23:00 -12°C° 0 mm 2 mps 627 mmHg 59%
    Show more